Weather History for Detroit, MI

Change the Weather History Date:

Sunday, December 9, 2012

  Actual Average Record
Temperature  
Mean Temperature 35 °F -  
Max Temperature 37 °F 38 °F 58 °F (1991)
Min Temperature 33 °F 28 °F 6 °F (1958)
Degree Days  
Heating Degree Days 30    
Moisture  
Dew Point 32 °F    
Average Humidity 87    
Maximum Humidity 100    
Minimum Humidity 70    
Precipitation  
Precipitation 0.03 in - - ()
Sea Level Pressure  
Sea Level Pressure 29.98 in    
Wind  
Wind Speed 8 mph (ENE)    
Max Wind Speed 17 mph    
Max Gust Speed 25 mph    
Visibility 7 miles    
Events Fog , Rain    
Averages and records for this station are not official NWS values.
T = Trace of Precipitation, MM = Missing Value Source: NWS Daily Summary

Daily Weather History Graph

Daily Weather History Graph

Search for Another Location

Airport:

Trip Planner

Search our weather history database for the weather conditions in past years. The results will help you decide how hot, cold, wet, or windy it might be!

Date:

Astronomy

Dec. 09, 2012 Rise Set
Actual Time 7:50 AM EST 4:59 PM EST
Civil Twilight 7:18 AM EST 5:31 PM EST
Nautical Twilight 6:42 AM EST 6:06 PM EST
Astronomical Twilight 6:08 AM EST 6:40 PM EST
Moon 3:17 AM EST (12/9) 2:08 PM EST (12/9)
Length of Visible Light 10h 12m
Length of Day
9h 09m
Waning Crescent, 19% of the Moon is Illuminated
Dec 9
Waning Crescent
Dec 13
New
Dec 20
First Quarter
Dec 28
Full
Jan 4
Last Quarter

Hourly Weather History & Observations

Time (EST) Temp. Windchill Dew Point Humidity Pressure Visibility Wind Dir Wind Speed Gust Speed Precip Events Conditions
12:04 AM 35.6 °F 30.7 °F 28.4 °F 75% 30.18 in 10.0 mi NNE 5.8 mph - N/A   Overcast
12:53 AM 35.1 °F 28.6 °F 28.9 °F 78% 30.20 in 10.0 mi NE 8.1 mph - N/A   Overcast
1:29 AM 35.6 °F 29.9 °F 28.4 °F 75% 30.18 in 10.0 mi NE 6.9 mph - N/A   Mostly Cloudy
1:53 AM 34.0 °F 28.8 °F 28.9 °F 82% 30.20 in 10.0 mi NE 5.8 mph - N/A   Scattered Clouds
2:19 AM 33.8 °F 28.6 °F 28.4 °F 81% 30.18 in 10.0 mi NNE 5.8 mph - N/A   Mostly Cloudy
2:34 AM 33.8 °F 29.6 °F 28.4 °F 81% 30.19 in 10.0 mi NE 4.6 mph - N/A   Mostly Cloudy
2:53 AM 34.0 °F 29.8 °F 28.9 °F 82% 30.21 in 10.0 mi NE 4.6 mph - N/A   Mostly Cloudy
3:53 AM 34.0 °F 28.0 °F 28.9 °F 82% 30.19 in 10.0 mi NE 6.9 mph - N/A   Overcast
4:53 AM 36.0 °F 29.0 °F 28.9 °F 76% 30.19 in 10.0 mi East 9.2 mph - N/A   Overcast
5:53 AM 36.0 °F 29.0 °F 27.0 °F 70% 30.20 in 10.0 mi East 9.2 mph - N/A   Overcast
6:53 AM 35.1 °F 27.4 °F 27.0 °F 72% 30.19 in 10.0 mi ESE 10.4 mph - N/A   Overcast
7:53 AM 35.1 °F 27.4 °F 28.0 °F 76% 30.19 in 10.0 mi East 10.4 mph - N/A   Mostly Cloudy
8:53 AM 35.1 °F 26.4 °F 28.9 °F 78% 30.17 in 10.0 mi East 12.7 mph - N/A   Overcast
9:09 AM 35.6 °F 27.1 °F 28.4 °F 75% 30.14 in 10.0 mi East 12.7 mph - N/A   Overcast
9:53 AM 35.1 °F 27.4 °F 30.0 °F 82% 30.14 in 10.0 mi ENE 10.4 mph - N/A   Overcast
10:05 AM 35.6 °F 26.6 °F 30.2 °F 81% 30.12 in 10.0 mi ENE 13.8 mph - N/A   Overcast
10:53 AM 36.0 °F 27.1 °F 32.0 °F 86% 30.11 in 10.0 mi East 13.8 mph 18.4 mph N/A   Overcast
11:27 AM 37.4 °F 29.3 °F 33.8 °F 87% 30.07 in 10.0 mi East 12.7 mph - N/A   Overcast
11:43 AM 37.4 °F 28.9 °F 33.8 °F 87% 30.06 in 10.0 mi ENE 13.8 mph - N/A   Overcast
11:53 AM 37.0 °F 29.8 °F 33.1 °F 86% 30.06 in 10.0 mi East 10.4 mph - N/A   Overcast
12:53 PM 37.0 °F 27.4 °F 33.1 °F 86% 30.02 in 10.0 mi East 17.3 mph 25.3 mph N/A   Overcast
1:53 PM 35.1 °F 25.9 °F 33.1 °F 92% 29.99 in 4.0 mi ENE 13.8 mph - 0.02 in Rain Light Rain
2:53 PM 34.0 °F 25.0 °F 32.0 °F 92% 29.93 in 10.0 mi ENE 12.7 mph 19.6 mph 0.01 in   Overcast
3:53 PM 33.1 °F 23.0 °F 30.9 °F 92% 29.89 in 9.0 mi East 15.0 mph 21.9 mph N/A   Overcast
4:53 PM 33.1 °F 24.4 °F 30.9 °F 92% 29.86 in 10.0 mi East 11.5 mph - 0.00 in   Overcast
5:53 PM 34.0 °F 28.8 °F 33.1 °F 96% 29.86 in 9.0 mi North 5.8 mph - 0.00 in   Overcast
6:41 PM 35.6 °F 32.8 °F 33.8 °F 93% 29.79 in 2.5 mi ENE 3.5 mph - N/A   Overcast
6:50 PM 35.6 °F 31.7 °F 33.8 °F 93% 29.79 in 2.5 mi ENE 4.6 mph - N/A   Overcast
6:53 PM 35.1 °F 30.1 °F 34.0 °F 96% 29.81 in 2.5 mi ENE 5.8 mph - N/A   Overcast
7:01 PM 35.6 °F 29.9 °F 33.8 °F 93% 29.76 in 3.0 mi East 6.9 mph - N/A   Overcast
7:53 PM 36.0 °F - 36.0 °F 100% 29.77 in 2.5 mi Calm Calm - N/A   Overcast
8:21 PM 35.6 °F 32.8 °F 35.6 °F 100% 29.74 in 1.8 mi NNE 3.5 mph - N/A   Overcast
8:53 PM 36.0 °F 31.1 °F 35.1 °F 97% 29.74 in 1.8 mi North 5.8 mph - N/A   Overcast
9:17 PM 35.6 °F 32.8 °F 35.6 °F 100% 29.71 in 2.0 mi WNW 3.5 mph - N/A   Overcast
9:51 PM 35.6 °F 32.8 °F 35.6 °F 100% 29.70 in 1.8 mi North 3.5 mph - N/A   Overcast
9:53 PM 35.1 °F - 35.1 °F 100% 29.71 in 1.8 mi Calm Calm - N/A   Overcast
10:53 PM 35.1 °F 32.2 °F 35.1 °F 100% 29.69 in 1.0 mi NW 3.5 mph - N/A   Overcast
11:06 PM 35.6 °F 32.8 °F 33.8 °F 93% 29.65 in 0.8 mi NNW 3.5 mph - N/A   Mist
11:53 PM 35.1 °F - 35.1 °F 100% 29.66 in 0.5 mi Calm Calm - 0.00 in Fog , Rain Light Rain